Weather History for Shishmaref, AK

Change the Weather History Date:

Wednesday, March 27, 2013

  Actual Average Record
Temperature  
Mean Temperature -14 °F -  
Max Temperature -9 °F 6 °F 26 °F (2014)
Min Temperature -20 °F -2 °F -27 °F (1997)
Degree Days  
Heating Degree Days 80    
Moisture  
Dew Point -23 °F    
Average Humidity 71    
Maximum Humidity 100    
Minimum Humidity 41    
Precipitation  
Precipitation 0.00 in - - ()
Sea Level Pressure  
Sea Level Pressure 30.26 in    
Wind  
Wind Speed 8 mph (SW)    
Max Wind Speed 12 mph    
Max Gust Speed -    
Visibility 8 miles    
Events      
Averages and records for this station are not official NWS values.
T = Trace of Precipitation, MM = Missing Value Source: NWS Daily Summary

Daily Weather History Graph

Daily Weather History Graph

Search for Another Location

Airport:

Trip Planner

Search our weather history database for the weather conditions in past years. The results will help you decide how hot, cold, wet, or windy it might be!

Date:

Astronomy

Mar. 27, 2013 Rise Set
Actual Time 8:35 AM AKDT 9:45 PM AKDT
Civil Twilight 7:42 AM AKDT 10:39 PM AKDT
Nautical Twilight 6:33 AM AKDT 11:48 PM AKDT
Astronomical Twilight 5:03 AM AKDT 1:22 AM AKDT
Moon 11:26 PM AKDT (3/27) 8:10 AM AKDT (3/27)
Length of Visible Light 14h 57m
Length of Day
13h 10m
Full, 100% of the Moon is Illuminated
Mar 27
Full
Apr 2
Last Quarter
Apr 10
New
Apr 18
First Quarter
Apr 25
Full

Hourly Weather History & Observations

Time (AKDT) Temp. Windchill Dew Point Humidity Pressure Visibility Wind Dir Wind Speed Gust Speed Precip Events Conditions
12:16 AM -14.8 °F -32.2 °F - N/A% 30.29 in 10.0 mi West 8.1 mph - N/A   Clear
12:36 AM -16.6 °F -32.9 °F -22.0 °F 76% 30.29 in 10.0 mi WSW 6.9 mph - N/A   Clear
12:56 AM -16.6 °F -35.7 °F -27.4 °F 58% 30.30 in 10.0 mi WSW 9.2 mph - N/A   Mostly Cloudy
1:16 AM -16.6 °F -34.4 °F -18.4 °F 92% 30.30 in 10.0 mi WSW 8.1 mph - N/A   Mostly Cloudy
1:36 AM -18.4 °F -35.1 °F - N/A% 30.29 in 10.0 mi WSW 6.9 mph - N/A   Mostly Cloudy
1:56 AM -16.6 °F -35.7 °F -18.4 °F 92% 30.29 in 10.0 mi SW 9.2 mph - N/A   Mostly Cloudy
2:16 AM -20.2 °F -40.1 °F - N/A% 30.30 in 10.0 mi WSW 9.2 mph - N/A   Scattered Clouds
2:36 AM -20.2 °F -40.1 °F - N/A% 30.30 in 10.0 mi WSW 9.2 mph - N/A   Clear
2:56 AM -20.2 °F -41.3 °F -22.0 °F 91% 30.30 in 10.0 mi WSW 10.4 mph - N/A   Clear
3:16 AM -20.2 °F -40.1 °F - N/A% 30.30 in 10.0 mi WSW 9.2 mph - N/A   Clear
3:36 AM -20.2 °F -41.3 °F -27.4 °F 69% 30.29 in 10.0 mi WSW 10.4 mph - N/A   Mostly Cloudy
3:56 AM -20.2 °F -40.1 °F - N/A% 30.29 in 10.0 mi WSW 9.2 mph - N/A   Overcast
4:16 AM -20.2 °F -41.3 °F - N/A% 30.29 in 9.0 mi WSW 10.4 mph - N/A   Overcast
4:36 AM -20.2 °F -41.3 °F -25.6 °F 76% 30.28 in 9.0 mi WSW 10.4 mph - N/A   Mostly Cloudy
4:56 AM -20.2 °F -41.3 °F - N/A% 30.28 in 10.0 mi SW 10.4 mph - N/A   Partly Cloudy
5:16 AM -20.2 °F -40.1 °F -27.4 °F 69% 30.28 in 10.0 mi WSW 9.2 mph - N/A   Clear
5:36 AM -20.2 °F -40.1 °F - N/A% 30.28 in 10.0 mi WSW 9.2 mph - N/A   Clear
5:56 AM -20.2 °F -38.8 °F - N/A% 30.28 in 10.0 mi WSW 8.1 mph - N/A   Clear
6:16 AM -20.2 °F -41.3 °F -25.6 °F 76% 30.28 in 10.0 mi SW 10.4 mph - N/A   Scattered Clouds
6:36 AM -20.2 °F -41.3 °F - N/A% 30.28 in 10.0 mi WSW 10.4 mph - N/A   Mostly Cloudy
6:56 AM -20.2 °F -42.4 °F -25.6 °F 76% 30.28 in 5.0 mi SW 11.5 mph - N/A   Overcast
7:16 AM -20.2 °F -41.3 °F - N/A% 30.28 in 3.0 mi WSW 10.4 mph - N/A   Overcast
7:36 AM -18.4 °F -39.1 °F -27.4 °F 63% 30.27 in 4.0 mi WSW 10.4 mph - N/A   Overcast
7:56 AM -20.2 °F -41.3 °F -29.2 °F 63% 30.27 in 5.0 mi WSW 10.4 mph - N/A   Scattered Clouds
8:16 AM -20.2 °F -40.1 °F - N/A% 30.27 in 3.0 mi WSW 9.2 mph - N/A   Clear
8:36 AM -20.2 °F -42.4 °F -25.6 °F 76% 30.27 in 4.0 mi SW 11.5 mph - N/A   Scattered Clouds
8:56 AM -20.2 °F -40.1 °F - N/A% 30.27 in 10.0 mi WSW 9.2 mph - N/A   Scattered Clouds
9:16 AM -20.2 °F -42.4 °F -25.6 °F 76% 30.26 in 5.0 mi SW 11.5 mph - N/A   Clear
9:36 AM -20.2 °F -42.4 °F - N/A% 30.27 in 4.0 mi SW 11.5 mph - N/A   Partly Cloudy
9:56 AM -18.4 °F -39.1 °F -23.8 °F 76% 30.26 in 1.8 mi WSW 10.4 mph - N/A   Clear
10:16 AM -20.2 °F -41.3 °F - N/A% 30.26 in 1.5 mi WSW 10.4 mph - N/A   Clear
10:36 AM -18.4 °F -39.1 °F -20.2 °F 91% 30.26 in 1.5 mi WSW 10.4 mph - N/A   Clear
10:56 AM -18.4 °F -40.2 °F - N/A% 30.26 in 2.0 mi WSW 11.5 mph - N/A   Clear
11:16 AM -18.4 °F -39.1 °F -18.4 °F 100% 30.26 in 1.5 mi WSW 10.4 mph - N/A   Clear
11:36 AM -16.6 °F -35.7 °F - N/A% 30.26 in 1.8 mi WSW 9.2 mph - N/A   Clear
11:56 AM -16.6 °F -36.8 °F -18.4 °F 92% 30.26 in 1.8 mi WSW 10.4 mph - N/A   Clear
12:16 PM -16.6 °F -36.8 °F - N/A% 30.25 in 1.8 mi WSW 10.4 mph - N/A   Clear
12:36 PM -16.6 °F -35.7 °F -16.6 °F 100% 30.25 in 3.0 mi WSW 9.2 mph - N/A   Clear
12:56 PM -14.8 °F -34.6 °F -29.2 °F 48% 30.25 in 2.0 mi WSW 10.4 mph - N/A   Clear
1:16 PM -14.8 °F -35.6 °F -14.8 °F 100% 30.25 in 2.5 mi WSW 11.5 mph - N/A   Clear
1:36 PM -13.0 °F -32.4 °F - N/A% 30.25 in 2.5 mi SW 10.4 mph - N/A   Clear
1:56 PM -13.0 °F -33.4 °F -16.6 °F 84% 30.25 in 3.0 mi SW 11.5 mph - N/A   Clear
2:16 PM -11.2 °F -31.1 °F -25.6 °F 49% 30.25 in 2.5 mi SW 11.5 mph - N/A   Clear
2:36 PM -11.2 °F -31.1 °F -25.6 °F 49% 30.25 in 2.5 mi WSW 11.5 mph - N/A   Clear
2:56 PM -11.2 °F -30.1 °F -16.6 °F 77% 30.26 in 3.0 mi SW 10.4 mph - N/A   Clear
3:16 PM -11.2 °F -29.0 °F -29.2 °F 41% 30.26 in 5.0 mi WSW 9.2 mph - N/A   Clear
3:36 PM -11.2 °F -27.8 °F -14.8 °F 84% 30.25 in 9.0 mi SW 8.1 mph - N/A   Clear
3:56 PM -11.2 °F -26.4 °F - N/A% 30.25 in 10.0 mi WSW 6.9 mph - N/A   Clear
4:16 PM -9.4 °F -25.6 °F -20.2 °F 59% 30.25 in 10.0 mi WSW 8.1 mph - N/A   Clear
4:36 PM -9.4 °F -24.3 °F -22.0 °F 54% 30.24 in 10.0 mi WSW 6.9 mph - N/A   Clear
4:56 PM -9.4 °F -24.3 °F -20.2 °F 59% 30.24 in 10.0 mi SW 6.9 mph - N/A   Clear
5:16 PM -9.4 °F -24.3 °F -25.6 °F 45% 30.24 in 10.0 mi SW 6.9 mph - N/A   Clear
5:36 PM -9.4 °F -22.7 °F -13.0 °F 84% 30.23 in 10.0 mi WSW 5.8 mph - N/A   Clear
5:56 PM -9.4 °F -20.9 °F - N/A% 30.23 in 10.0 mi WSW 4.6 mph - N/A   Clear
6:16 PM -9.4 °F -22.7 °F - N/A% 30.23 in 10.0 mi WSW 5.8 mph - N/A   Clear
6:36 PM -9.4 °F -22.7 °F - N/A% 30.23 in 10.0 mi SW 5.8 mph - N/A   Clear
6:56 PM -9.4 °F -20.9 °F - N/A% 30.23 in 10.0 mi SW 4.6 mph - N/A   Clear
7:16 PM -9.4 °F -20.9 °F - N/A% 30.23 in 10.0 mi SW 4.6 mph - N/A   Clear
7:36 PM -9.4 °F -20.9 °F - N/A% 30.23 in 10.0 mi SW 4.6 mph - N/A   Clear
7:56 PM -11.2 °F -20.6 °F - N/A% 30.22 in 10.0 mi SW 3.5 mph - N/A   Clear
8:16 PM -11.2 °F -20.6 °F - N/A% 30.22 in 10.0 mi SW 3.5 mph - N/A   Clear
8:36 PM -11.2 °F - - N/A% 30.22 in 10.0 mi Calm Calm - N/A   Clear
8:56 PM -11.2 °F - - N/A% 30.22 in 10.0 mi Calm Calm - N/A   Clear
9:16 PM -11.2 °F - - N/A% 30.22 in 10.0 mi Calm Calm - N/A   Clear
9:36 PM -13.0 °F - - N/A% 30.22 in 10.0 mi Calm Calm - N/A   Clear
9:56 PM -14.8 °F - - N/A% 30.22 in 10.0 mi Calm Calm - N/A   Clear
10:16 PM -14.8 °F - - N/A% 30.22 in 10.0 mi Calm Calm - N/A   Clear
10:36 PM -14.8 °F -24.8 °F -29.2 °F 48% 30.22 in 10.0 mi ESE 3.5 mph - N/A   Clear
10:56 PM -16.6 °F -29.3 °F - N/A% 30.21 in 10.0 mi ESE 4.6 mph - N/A   Clear
11:16 PM -16.6 °F -29.3 °F -29.2 °F 53% 30.21 in 10.0 mi ESE 4.6 mph - N/A   Clear
11:36 PM -14.8 °F -24.8 °F -27.4 °F 53% 30.21 in 10.0 mi East 3.5 mph - N/A   Clear
11:56 PM -14.8 °F -27.2 °F -25.6 °F 58% 30.20 in 10.0 mi ENE 4.6 mph - N/A   Clear